Regional Weather Roundup
Issued by NWS

Home | Current Version | Previous Version | Graphics & Text | Print | Product List | Glossary On
Versions: 1 2 3 4 5 6 7 8 9 10 11 12 13 14 15 16 17 18 19 20 21 22 23 24 25 26 27 28 29 30 31 32 33 34 35 36 37 38 39 40 41 42 43 44 45 46 47 48 49 50
000
ASUS45 KABQ 220301
RWRNM
WEATHER ROUNDUP FOR NEW MEXICO
NATIONAL WEATHER SERVICE ALBUQUERQUE NM
900 PM MDT TUE OCT 21 2014

NOTE: "FAIR" MEANS FEW OR NO CLOUDS BELOW 12,000 FEET AGL WITH NO
       SIGNIFICANT WEATHER OR OBSTRUCTIONS TO VISION.

      THIS PRODUCT IS RELEASED AS TWO VERSIONS.  ONE VERSION NEAR
      THE TOP OF THE HOUR CONTAINING PRELIMINARY DATA FROM ALBUQUERQUE
      AND OTHER STATIONS.  A FINAL VERSION WITH ADDITIONAL DATA IS
      ISSUED ABOUT 10 MINUTES AFTER THE HOUR.

NMZ501-503-504-510>518-220400-
NORTHWEST PLATEAU/NORTHCENTRAL MOUNTAINS

CITY           SKY/WX    TMP DP  RH WIND       PRES   REMARKS
FARMINGTON     CLEAR     55  42  61 E7        30.04S
LOS ALAMOS     CLOUDY    53  43  68 SW5       30.17S
SANTA FE       MOCLDY    53  44  71 SE6       30.13R
TAOS           MOCLDY    48  37  66 SE5       30.17R
ANGEL FIRE     FAIR      43  40  90 S7        30.22R

$$
NMZ402-403-502-505>509-220400-
WESTCENTRAL MOUNTAINS/SOUTHWEST MOUNTAINS

CITY           SKY/WX    TMP DP  RH WIND       PRES   REMARKS
GALLUP         CLOUDY    56  44  64 SE5       30.11S
SILVER CITY    CLEAR     54  50  87 NE5       30.11R

$$
NMZ407-409-411-412-220400-
SOUTHERN DESERTS

CITY           SKY/WX    TMP DP  RH WIND       PRES   REMARKS
LORDSBURG      FAIR      59  50  72 MISG      30.03R
DEMING         CLEAR     62  54  74 SE6       30.04R
LAS CRUCES     CLEAR     62  54  75 SE6       30.06S
HOLLOMAN AFB   PTCLDY    60  53  76 S8        30.04R
T OR C         CLEAR     62  51  67 NW3       30.06R

$$
NMZ519>523-220400-
CENTRAL VALLEYS/CENTRAL HIGHLANDS

CITY           SKY/WX    TMP DP  RH WIND       PRES   REMARKS
ALBUQUERQUE    PTCLDY    57  47  69 SE7       30.10R
DOUBLE EAGLE   PTCLDY    52  45  76 S8        30.11R
MORIARTY ARPT  CLOUDY    54  50  86 SE10      30.15R
CLINES CORNERS CLOUDY    50  49  96 S10       30.16R
BELEN          NOT AVBL
SOCORRO        MOCLDY    57  51  81 NE5       30.07R

$$
NMZ524>526-539-540-220400-
SOUTHCENTRAL MOUNTAINS

CITY           SKY/WX    TMP DP  RH WIND       PRES   REMARKS
RUIDOSO        MOCLDY    50  50 100 SE3       30.20R

$$
NMZ527>531-220400-
NORTHEAST HIGHLANDS/NORTHEAST PLAINS

CITY           SKY/WX    TMP DP  RH WIND       PRES   REMARKS
LAS VEGAS      CLOUDY    50  49  96 S12       30.17R
RATON          PTCLDY    53  47  79 S13       30.11R
CLAYTON        CLEAR     57  46  66 SW10      30.07R

$$
NMZ532>537-220400-
EASTCENTRAL PLAINS

CITY           SKY/WX    TMP DP  RH WIND       PRES   REMARKS
TUCUMCARI      CLOUDY    61  55  81 S9        30.07S
CANNON AFB     MOCLDY    57  56  95 S5        30.11R
CLOVIS AIRPORT MOCLDY    57  54  88 SW7       30.13S

$$
NMZ028-029-538-220400-
SOUTHEAST PLAINS

CITY           SKY/WX    TMP DP  RH WIND       PRES   REMARKS
ROSWELL        CLOUDY    61  59  93 S9        30.08R
CARLSBAD       CLOUDY    65  61  87 SE7       30.06R
HOBBS          CLOUDY    61  59  94 SE5       30.11R


$$



USA.gov is the U.S. government's official web portal to all federal, state and local government web resources and services.